CES5888 ZBAA-ZPPP

Flight info

Callsign CES5888
Flight time N/A
Altitude FL361
Route PEGSO B215 GODON W43 SAVPA W696 MENED W276 AVDIG W666 INVOG W30 MEBNA
Aircraft B738/M-SDE2E3FGILRWXY/LB1D1

Departure

Time N/A
Airport Beijing Capital International Airport (ZBAA)

Arrival

Time 2026-04-27 12:11
Airport Kunming Changshui International Airport (ZPPP)
Time Latitude Longitude Altitude Speed Heading
2026-04-27 08:21 39.88348 115.67001 28048 ft 440 kts 219°
2026-04-27 08:22 39.85490 115.65403 28219 ft 463 kts 207°
2026-04-27 08:22 39.79342 115.65691 29002 ft 519 kts 172°
2026-04-27 08:22 39.74805 115.67695 29731 ft 516 kts 173°
2026-04-27 08:23 39.72533 115.68669 29960 ft 516 kts 173°
2026-04-27 08:23 39.67985 115.70528 30361 ft 515 kts 174°
2026-04-27 08:23 39.64572 115.71924 30660 ft 515 kts 174°
2026-04-27 08:23 39.61163 115.73302 30986 ft 513 kts 175°
2026-04-27 08:24 39.57757 115.74541 31329 ft 510 kts 176°
2026-04-27 08:24 39.54357 115.75863 31683 ft 511 kts 175°
2026-04-27 08:24 39.50972 115.77243 32050 ft 510 kts 175°
2026-04-27 08:24 39.47598 115.78617 32411 ft 509 kts 175°
2026-04-27 08:25 39.44229 115.79974 32749 ft 508 kts 175°
2026-04-27 08:25 39.40858 115.81317 33071 ft 507 kts 176°
2026-04-27 08:25 39.37508 115.82644 33472 ft 504 kts 176°
2026-04-27 08:25 39.34160 115.83966 33835 ft 503 kts 176°
2026-04-27 08:26 39.30824 115.85280 34107 ft 503 kts 176°
2026-04-27 08:26 39.27482 115.86596 34337 ft 504 kts 176°
2026-04-27 08:26 39.24136 115.87735 34539 ft 487 kts 187°
2026-04-27 08:26 39.20899 115.87694 34731 ft 450 kts 205°
2026-04-27 08:27 39.18012 115.86616 35006 ft 420 kts 217°
2026-04-27 08:27 39.15468 115.84936 35202 ft 406 kts 225°
2026-04-27 08:27 39.13224 115.82822 35238 ft 395 kts 234°
2026-04-27 08:27 39.11417 115.80261 35305 ft 382 kts 244°
2026-04-27 08:28 39.09849 115.77503 35441 ft 383 kts 244°
2026-04-27 08:28 39.08294 115.74729 35618 ft 383 kts 244°
2026-04-27 08:28 39.06731 115.71948 35793 ft 384 kts 244°
2026-04-27 08:28 39.05159 115.69168 35947 ft 386 kts 244°
2026-04-27 08:29 39.02001 115.63640 36109 ft 383 kts 244°
2026-04-27 08:29 38.98828 115.58104 36107 ft 387 kts 243°
2026-04-27 08:30 38.95620 115.52524 36109 ft 390 kts 243°
2026-04-27 08:30 38.92974 115.46635 36110 ft 377 kts 254°
2026-04-27 08:31 38.90886 115.40476 36099 ft 377 kts 254°
2026-04-27 08:31 38.88783 115.34341 36086 ft 375 kts 253°
2026-04-27 08:32 38.86657 115.28247 36105 ft 375 kts 253°
2026-04-27 08:32 38.84517 115.22164 36097 ft 375 kts 253°
2026-04-27 08:33 38.82373 115.16087 36100 ft 374 kts 253°
2026-04-27 08:33 38.80229 115.10022 36100 ft 374 kts 253°
2026-04-27 08:34 38.78086 115.03969 36101 ft 374 kts 253°
2026-04-27 08:34 38.75942 114.97935 36092 ft 372 kts 253°
2026-04-27 08:35 38.73806 114.91926 36093 ft 371 kts 253°
2026-04-27 08:35 38.71670 114.85924 36097 ft 371 kts 253°
2026-04-27 08:36 38.69533 114.79929 36101 ft 371 kts 253°
2026-04-27 08:36 38.67391 114.73933 36094 ft 371 kts 253°
2026-04-27 08:37 38.65248 114.67944 36100 ft 371 kts 253°
2026-04-27 08:37 38.63104 114.61968 36087 ft 369 kts 253°
2026-04-27 08:38 38.60955 114.56019 36091 ft 369 kts 253°
2026-04-27 08:38 38.58796 114.50085 36102 ft 368 kts 253°
2026-04-27 08:39 38.56647 114.44152 36094 ft 369 kts 253°
2026-04-27 08:39 38.54498 114.38221 36092 ft 369 kts 253°
2026-04-27 08:40 38.52343 114.32288 36093 ft 369 kts 253°
2026-04-27 08:40 38.50188 114.26365 36100 ft 369 kts 253°
2026-04-27 08:41 38.48025 114.20433 36099 ft 369 kts 253°
2026-04-27 08:41 38.45859 114.14503 36107 ft 370 kts 253°
2026-04-27 08:42 38.43689 114.08571 36103 ft 370 kts 253°
2026-04-27 08:42 38.41513 114.02643 36134 ft 369 kts 252°
2026-04-27 08:43 38.39321 113.96728 36106 ft 369 kts 253°
2026-04-27 08:43 38.37167 113.90821 36101 ft 367 kts 253°
2026-04-27 08:44 38.35006 113.84943 36101 ft 367 kts 253°
2026-04-27 08:44 38.32820 113.79079 36116 ft 367 kts 252°
2026-04-27 08:45 38.30684 113.73229 36171 ft 363 kts 253°
2026-04-27 08:45 38.28493 113.67426 36078 ft 362 kts 253°
2026-04-27 08:46 38.26321 113.61684 36134 ft 358 kts 253°
2026-04-27 08:46 38.24097 113.55968 36103 ft 363 kts 252°
2026-04-27 08:47 38.21882 113.50183 36147 ft 366 kts 252°
2026-04-27 08:47 38.19675 113.44351 36118 ft 367 kts 252°
2026-04-27 08:48 38.17470 113.38538 36127 ft 364 kts 252°
2026-04-27 08:48 38.15280 113.32764 36151 ft 362 kts 252°
2026-04-27 08:49 38.13128 113.26991 36151 ft 362 kts 252°
2026-04-27 08:49 38.10983 113.21218 36145 ft 361 kts 253°
2026-04-27 08:50 38.08867 113.15482 36145 ft 360 kts 251°
2026-04-27 08:50 38.06664 113.09794 36151 ft 360 kts 253°
2026-04-27 08:51 38.04527 113.04049 36135 ft 362 kts 253°
2026-04-27 08:51 38.02361 112.98276 36150 ft 364 kts 253°
2026-04-27 08:52 38.00206 112.92511 36143 ft 363 kts 252°
2026-04-27 08:52 37.98035 112.86739 36136 ft 363 kts 252°
2026-04-27 08:53 37.95858 112.80992 36095 ft 361 kts 252°
2026-04-27 08:53 37.93681 112.75271 36112 ft 362 kts 253°
2026-04-27 08:54 37.91506 112.69518 36130 ft 364 kts 252°
2026-04-27 08:54 37.89313 112.63748 36135 ft 365 kts 252°
2026-04-27 08:55 37.87102 112.57964 36127 ft 367 kts 252°
2026-04-27 08:55 37.84702 112.52258 36120 ft 369 kts 250°
2026-04-27 08:56 37.82259 112.46571 36129 ft 369 kts 250°
2026-04-27 08:56 37.79836 112.40885 36114 ft 368 kts 251°
2026-04-27 08:57 37.76268 112.32350 36138 ft 367 kts 252°
2026-04-27 08:58 37.74061 112.26572 36119 ft 366 kts 253°
2026-04-27 08:58 37.71894 112.20790 36113 ft 364 kts 253°
2026-04-27 08:59 37.69710 112.15045 36129 ft 363 kts 253°
2026-04-27 08:59 37.67538 112.09329 36096 ft 360 kts 253°
2026-04-27 09:00 37.65314 112.03598 36143 ft 369 kts 252°
2026-04-27 09:00 37.63058 111.97753 36132 ft 371 kts 252°
2026-04-27 09:01 37.60814 111.91925 36154 ft 369 kts 252°
2026-04-27 09:01 37.58561 111.86115 36121 ft 369 kts 252°
2026-04-27 09:02 37.56328 111.80326 36135 ft 368 kts 252°
2026-04-27 09:02 37.54085 111.74555 36136 ft 367 kts 252°
2026-04-27 09:03 37.51715 111.68842 36101 ft 374 kts 246°
2026-04-27 09:03 37.48555 111.63570 36123 ft 389 kts 236°
2026-04-27 09:04 37.44713 111.58800 36116 ft 389 kts 236°
2026-04-27 09:04 37.40873 111.54023 36109 ft 390 kts 236°
2026-04-27 09:05 37.37047 111.49235 36146 ft 390 kts 235°
2026-04-27 09:05 37.33130 111.44506 36101 ft 390 kts 235°
2026-04-27 09:06 37.29231 111.39764 36131 ft 391 kts 236°
2026-04-27 09:06 37.25457 111.34910 36137 ft 391 kts 236°
2026-04-27 09:07 37.21540 111.30168 36124 ft 392 kts 236°
2026-04-27 09:07 37.17718 111.25360 36141 ft 391 kts 235°
2026-04-27 09:08 37.13776 111.20680 36168 ft 396 kts 230°
2026-04-27 09:08 37.09837 111.16034 36156 ft 384 kts 238°
2026-04-27 09:08 37.08872 111.13226 35645 ft 353 kts 274°
2026-04-27 09:09 37.08696 111.10188 35857 ft 359 kts 253°
2026-04-27 09:09 37.07118 111.07656 36008 ft 393 kts 227°
2026-04-27 09:09 37.04580 111.06059 36120 ft 420 kts 214°
2026-04-27 09:10 36.99505 111.02723 36136 ft 406 kts 228°
2026-04-27 09:10 36.95306 110.98212 36131 ft 395 kts 235°
2026-04-27 09:11 36.91446 110.93412 36127 ft 391 kts 235°
2026-04-27 09:11 36.87567 110.88682 36133 ft 390 kts 235°
2026-04-27 09:11 36.85709 110.86257 36066 ft 378 kts 247°
2026-04-27 09:12 36.84425 110.83484 36063 ft 375 kts 245°
2026-04-27 09:12 36.82941 110.80805 36176 ft 378 kts 244°
2026-04-27 09:12 36.81324 110.78163 36123 ft 387 kts 243°
2026-04-27 09:13 36.78366 110.72654 36132 ft 379 kts 246°
2026-04-27 09:13 36.75480 110.67157 36216 ft 379 kts 244°
2026-04-27 09:14 36.72496 110.61696 36114 ft 382 kts 244°
2026-04-27 09:14 36.69520 110.56194 36170 ft 385 kts 245°
2026-04-27 09:15 36.66685 110.50609 36160 ft 381 kts 245°
2026-04-27 09:15 36.63734 110.45124 36135 ft 381 kts 244°
2026-04-27 09:16 36.60748 110.39688 36139 ft 383 kts 242°
2026-04-27 09:16 36.57833 110.34224 36123 ft 383 kts 243°
2026-04-27 09:17 36.55001 110.28694 36061 ft 380 kts 245°
2026-04-27 09:17 36.52016 110.23234 36171 ft 383 kts 244°
2026-04-27 09:18 36.49085 110.17705 36188 ft 378 kts 247°
2026-04-27 09:18 36.47573 110.14984 36137 ft 391 kts 239°
2026-04-27 09:18 36.45801 110.12390 36072 ft 392 kts 241°
2026-04-27 09:19 36.42920 110.06816 36150 ft 384 kts 244°
2026-04-27 09:19 36.39977 110.01259 36136 ft 386 kts 244°
2026-04-27 09:20 36.36971 109.95736 36154 ft 388 kts 243°
2026-04-27 09:20 36.33956 109.90222 36140 ft 385 kts 244°
2026-04-27 09:21 36.30978 109.84742 36148 ft 384 kts 244°
2026-04-27 09:21 36.27993 109.79262 36149 ft 384 kts 244°
2026-04-27 09:22 36.24983 109.73806 36136 ft 384 kts 243°
2026-04-27 09:22 36.21989 109.68325 36159 ft 386 kts 243°
2026-04-27 09:23 36.18980 109.62812 36161 ft 388 kts 242°
2026-04-27 09:23 36.15935 109.57265 36150 ft 390 kts 243°
2026-04-27 09:24 36.12887 109.51716 36147 ft 391 kts 243°
2026-04-27 09:24 36.09831 109.46179 36146 ft 391 kts 243°
2026-04-27 09:25 36.06815 109.40621 36138 ft 390 kts 242°
2026-04-27 09:25 36.03761 109.35088 36140 ft 389 kts 243°
2026-04-27 09:26 36.00647 109.29600 36144 ft 392 kts 242°
2026-04-27 09:26 35.97478 109.24117 36137 ft 399 kts 236°
2026-04-27 09:27 35.93280 109.19478 36138 ft 413 kts 225°
2026-04-27 09:27 35.90815 109.17595 36098 ft 424 kts 216°
2026-04-27 09:27 35.88150 109.16024 36139 ft 426 kts 214°
2026-04-27 09:28 35.82729 109.13031 36089 ft 430 kts 211°
2026-04-27 09:28 35.77101 109.10514 36138 ft 432 kts 209°
2026-04-27 09:29 35.71454 109.08077 36137 ft 430 kts 209°
2026-04-27 09:29 35.65817 109.05654 36141 ft 429 kts 209°
2026-04-27 09:30 35.60205 109.03155 36151 ft 430 kts 210°
2026-04-27 09:30 35.54577 109.00644 36139 ft 432 kts 210°
2026-04-27 09:31 35.48924 108.98133 36157 ft 433 kts 209°
2026-04-27 09:31 35.43251 108.95629 36136 ft 433 kts 209°
2026-04-27 09:32 35.37585 108.93132 36140 ft 434 kts 209°
2026-04-27 09:32 35.31912 108.90635 36143 ft 434 kts 209°
2026-04-27 09:33 35.26246 108.88143 36154 ft 433 kts 209°
2026-04-27 09:33 35.20576 108.85662 36133 ft 433 kts 209°
2026-04-27 09:34 35.14915 108.83180 36136 ft 433 kts 209°
2026-04-27 09:34 35.09247 108.80692 36155 ft 435 kts 209°
2026-04-27 09:35 35.03550 108.78195 36131 ft 436 kts 209°
2026-04-27 09:35 34.97837 108.75703 36129 ft 437 kts 209°
2026-04-27 09:36 34.92115 108.73210 36123 ft 438 kts 209°
2026-04-27 09:36 34.86392 108.70720 36120 ft 438 kts 209°
2026-04-27 09:37 34.80670 108.68233 36123 ft 437 kts 209°
2026-04-27 09:37 34.74957 108.65754 36119 ft 436 kts 208°
2026-04-27 09:38 34.69252 108.63286 36114 ft 436 kts 208°
2026-04-27 09:38 34.63556 108.60821 36121 ft 435 kts 208°
2026-04-27 09:39 34.57865 108.58357 36102 ft 435 kts 208°
2026-04-27 09:39 34.52170 108.55900 36099 ft 435 kts 208°
2026-04-27 09:40 34.46477 108.53448 36106 ft 435 kts 208°
2026-04-27 09:40 34.40777 108.50998 36102 ft 436 kts 208°
2026-04-27 09:41 34.35067 108.48546 36102 ft 436 kts 208°
2026-04-27 09:41 34.29357 108.46098 36098 ft 436 kts 208°
2026-04-27 09:42 34.23643 108.43651 36103 ft 437 kts 208°
2026-04-27 09:42 34.17923 108.41204 36106 ft 437 kts 207°
2026-04-27 09:43 34.12202 108.38761 36127 ft 437 kts 207°
2026-04-27 09:43 34.06476 108.36319 36112 ft 437 kts 207°
2026-04-27 09:44 34.00768 108.33878 36131 ft 437 kts 207°
2026-04-27 09:44 33.95030 108.31443 36132 ft 437 kts 207°
2026-04-27 09:45 33.89305 108.29014 36136 ft 438 kts 207°
2026-04-27 09:45 33.83569 108.26585 36133 ft 439 kts 207°
2026-04-27 09:46 33.77805 108.24120 36145 ft 442 kts 207°
2026-04-27 09:46 33.72005 108.21691 36136 ft 442 kts 207°
2026-04-27 09:47 33.66225 108.19251 36121 ft 440 kts 207°
2026-04-27 09:47 33.60466 108.16823 36110 ft 439 kts 206°
2026-04-27 09:48 33.54721 108.14408 36107 ft 438 kts 206°
2026-04-27 09:48 33.48979 108.11991 36097 ft 438 kts 206°
2026-04-27 09:49 33.43243 108.09584 36086 ft 437 kts 206°
2026-04-27 09:49 33.37483 108.07287 36051 ft 438 kts 204°
2026-04-27 09:50 33.31635 108.05237 36066 ft 439 kts 203°
2026-04-27 09:50 33.25784 108.03206 36057 ft 439 kts 203°
2026-04-27 09:51 33.19949 108.01146 36053 ft 439 kts 203°
2026-04-27 09:51 33.14104 107.99067 36026 ft 440 kts 203°
2026-04-27 09:52 33.08245 107.96980 36049 ft 441 kts 203°
2026-04-27 09:52 33.02347 107.94895 36069 ft 444 kts 203°
2026-04-27 09:53 32.96419 107.92789 36067 ft 446 kts 203°
2026-04-27 09:53 32.90480 107.90680 36049 ft 446 kts 203°
2026-04-27 09:54 32.84539 107.88576 36071 ft 447 kts 202°
2026-04-27 09:54 32.78579 107.86470 36067 ft 448 kts 202°
2026-04-27 09:55 32.72612 107.84361 36069 ft 449 kts 202°
2026-04-27 09:55 32.63699 107.81231 36059 ft 441 kts 202°
2026-04-27 09:56 32.57829 107.79168 36064 ft 441 kts 202°
2026-04-27 09:56 32.51951 107.77100 36044 ft 442 kts 202°
2026-04-27 09:57 32.46067 107.75037 36052 ft 444 kts 202°
2026-04-27 09:57 32.40143 107.72962 36034 ft 446 kts 202°
2026-04-27 09:58 32.34192 107.70882 36038 ft 448 kts 202°
2026-04-27 09:58 32.28219 107.68795 36053 ft 450 kts 202°
2026-04-27 09:59 32.22217 107.66700 36037 ft 451 kts 203°
2026-04-27 09:59 32.16650 107.63590 36001 ft 438 kts 221°
2026-04-27 10:00 32.11868 107.59306 36033 ft 430 kts 223°
2026-04-27 10:00 32.07132 107.55026 36026 ft 430 kts 223°
2026-04-27 10:01 32.02363 107.50760 36019 ft 433 kts 223°
2026-04-27 10:01 31.97535 107.46517 36008 ft 435 kts 222°
2026-04-27 10:02 31.92684 107.42249 35975 ft 437 kts 222°
2026-04-27 10:02 31.87824 107.37971 35993 ft 437 kts 221°
2026-04-27 10:03 31.82964 107.33696 36005 ft 437 kts 222°
2026-04-27 10:03 31.78003 107.29564 35995 ft 442 kts 214°
2026-04-27 10:04 31.72399 107.26549 35992 ft 443 kts 209°
2026-04-27 10:04 31.66763 107.23717 35983 ft 440 kts 209°
2026-04-27 10:05 31.61170 107.20872 35986 ft 438 kts 210°
2026-04-27 10:05 31.55596 107.18007 35983 ft 438 kts 210°
2026-04-27 10:06 31.50028 107.15140 35973 ft 438 kts 210°
2026-04-27 10:06 31.44449 107.12270 35966 ft 439 kts 209°
2026-04-27 10:07 31.38856 107.09397 35967 ft 441 kts 209°
2026-04-27 10:07 31.33245 107.06517 35975 ft 442 kts 209°
2026-04-27 10:08 31.27606 107.03628 35987 ft 444 kts 209°
2026-04-27 10:08 31.21946 107.00733 35964 ft 445 kts 209°
2026-04-27 10:09 31.16293 106.97847 35968 ft 444 kts 209°
2026-04-27 10:09 31.10633 106.94956 35966 ft 445 kts 209°
2026-04-27 10:10 31.04960 106.92069 35965 ft 444 kts 209°
2026-04-27 10:10 30.99305 106.89193 35969 ft 445 kts 209°
2026-04-27 10:11 30.93645 106.86314 35966 ft 445 kts 208°
2026-04-27 10:11 30.87975 106.83436 35978 ft 445 kts 208°
2026-04-27 10:12 30.82302 106.80561 35973 ft 446 kts 208°
2026-04-27 10:12 30.76631 106.77690 35976 ft 445 kts 208°
2026-04-27 10:13 30.70958 106.74821 35975 ft 445 kts 208°
2026-04-27 10:13 30.65295 106.71960 35967 ft 445 kts 208°
2026-04-27 10:14 30.59598 106.69165 35973 ft 447 kts 204°
2026-04-27 10:14 30.53649 106.67003 35972 ft 450 kts 201°
2026-04-27 10:15 30.47653 106.64973 35973 ft 450 kts 201°
2026-04-27 10:15 30.41675 106.62891 35957 ft 449 kts 202°
2026-04-27 10:16 30.35713 106.60780 35965 ft 449 kts 202°
2026-04-27 10:16 30.29749 106.58663 35978 ft 449 kts 202°
2026-04-27 10:17 30.23774 106.56548 35962 ft 451 kts 202°
2026-04-27 10:17 30.17771 106.54461 35964 ft 454 kts 199°
2026-04-27 10:18 30.11436 106.53717 35974 ft 464 kts 185°
2026-04-27 10:18 30.04988 106.53790 35974 ft 465 kts 185°
2026-04-27 10:19 29.98537 106.53864 35975 ft 464 kts 185°
2026-04-27 10:19 29.92087 106.53894 35958 ft 465 kts 185°
2026-04-27 10:20 29.85638 106.53901 35966 ft 464 kts 185°
2026-04-27 10:20 29.79188 106.53906 35968 ft 465 kts 185°
2026-04-27 10:21 29.72728 106.53913 35963 ft 465 kts 185°
2026-04-27 10:21 29.66265 106.53920 35964 ft 466 kts 185°
2026-04-27 10:22 29.59794 106.53928 35951 ft 466 kts 185°
2026-04-27 10:22 29.53317 106.53936 35960 ft 467 kts 185°
2026-04-27 10:23 29.46839 106.53944 35966 ft 467 kts 185°
2026-04-27 10:23 29.40351 106.53952 35972 ft 467 kts 185°
2026-04-27 10:24 29.33858 106.53959 35962 ft 468 kts 185°
2026-04-27 10:24 29.27358 106.53967 35976 ft 468 kts 185°
2026-04-27 10:25 29.20855 106.53975 35993 ft 468 kts 185°
2026-04-27 10:25 29.14344 106.53983 35988 ft 469 kts 185°
2026-04-27 10:26 29.07827 106.53991 35992 ft 470 kts 185°
2026-04-27 10:26 29.01305 106.53998 35984 ft 469 kts 185°
2026-04-27 10:27 28.94789 106.54003 36007 ft 469 kts 185°
2026-04-27 10:27 28.88267 106.53977 36016 ft 470 kts 185°
2026-04-27 10:28 28.81732 106.54015 35994 ft 471 kts 185°
2026-04-27 10:28 28.75201 106.54026 36002 ft 470 kts 185°
2026-04-27 10:29 28.68687 106.54032 36006 ft 468 kts 185°
2026-04-27 10:29 28.62193 106.54037 36009 ft 468 kts 185°
2026-04-27 10:30 28.55708 106.54043 36018 ft 466 kts 185°
2026-04-27 10:30 28.49240 106.54049 36006 ft 465 kts 185°
2026-04-27 10:31 28.42785 106.54054 36020 ft 465 kts 185°
2026-04-27 10:31 28.36329 106.54062 36021 ft 465 kts 185°
2026-04-27 10:32 28.29865 106.54066 36017 ft 466 kts 185°
2026-04-27 10:32 28.23387 106.54072 36023 ft 466 kts 185°
2026-04-27 10:33 28.16918 106.53994 36014 ft 463 kts 192°
2026-04-27 10:33 28.13889 106.53017 36044 ft 449 kts 211°
2026-04-27 10:33 28.11316 106.51121 36029 ft 439 kts 225°
2026-04-27 10:34 28.09235 106.48643 36024 ft 433 kts 237°
2026-04-27 10:34 28.07748 106.45727 36040 ft 427 kts 250°
2026-04-27 10:34 28.05662 106.39439 36027 ft 428 kts 252°
2026-04-27 10:35 28.03637 106.33112 36022 ft 429 kts 252°
2026-04-27 10:35 28.01556 106.26800 36031 ft 429 kts 251°
2026-04-27 10:36 27.99442 106.20482 36024 ft 430 kts 251°
2026-04-27 10:36 27.97326 106.14171 36021 ft 430 kts 251°
2026-04-27 10:37 27.95231 106.07859 36027 ft 429 kts 251°
2026-04-27 10:37 27.93159 106.01553 36026 ft 429 kts 251°
2026-04-27 10:38 27.91085 105.95254 36037 ft 428 kts 251°
2026-04-27 10:38 27.89005 105.88959 36030 ft 428 kts 251°
2026-04-27 10:39 27.86923 105.82672 36025 ft 428 kts 251°
2026-04-27 10:39 27.84838 105.76385 36041 ft 428 kts 251°
2026-04-27 10:40 27.82753 105.70108 36040 ft 428 kts 251°
2026-04-27 10:40 27.80663 105.63827 36042 ft 428 kts 251°
2026-04-27 10:41 27.78570 105.57555 36044 ft 428 kts 251°
2026-04-27 10:41 27.76470 105.51276 36025 ft 429 kts 251°
2026-04-27 10:42 27.74369 105.44997 36045 ft 429 kts 251°
2026-04-27 10:42 27.72261 105.38704 36042 ft 430 kts 251°
2026-04-27 10:43 27.70150 105.32414 36042 ft 430 kts 251°
2026-04-27 10:43 27.68031 105.26113 36049 ft 430 kts 251°
2026-04-27 10:44 27.65912 105.19820 36045 ft 430 kts 251°
2026-04-27 10:44 27.63685 105.13586 36056 ft 431 kts 244°
2026-04-27 10:45 27.60253 105.08036 36049 ft 437 kts 229°
2026-04-27 10:45 27.55887 105.03272 36062 ft 438 kts 227°
2026-04-27 10:46 27.51477 104.98539 36057 ft 439 kts 227°
2026-04-27 10:46 27.47084 104.93779 36053 ft 439 kts 227°
2026-04-27 10:47 27.42706 104.89022 36081 ft 439 kts 227°
2026-04-27 10:47 27.38320 104.84252 36074 ft 439 kts 227°
2026-04-27 10:48 27.33924 104.79493 36091 ft 441 kts 227°
2026-04-27 10:48 27.29524 104.74715 36077 ft 440 kts 227°
2026-04-27 10:49 27.25144 104.69955 36080 ft 438 kts 227°
2026-04-27 10:49 27.20764 104.65225 36074 ft 437 kts 226°
2026-04-27 10:50 27.16361 104.60528 36105 ft 437 kts 226°
2026-04-27 10:50 27.11959 104.55828 36097 ft 438 kts 226°
2026-04-27 10:51 27.07555 104.51124 36096 ft 438 kts 226°
2026-04-27 10:51 27.03154 104.46430 36102 ft 437 kts 226°
2026-04-27 10:52 26.98759 104.41744 36103 ft 437 kts 226°
2026-04-27 10:52 26.94366 104.37064 36106 ft 437 kts 226°
2026-04-27 10:53 26.87745 104.30022 36120 ft 439 kts 226°
2026-04-27 10:54 26.83222 104.25438 36097 ft 441 kts 223°
2026-04-27 10:54 26.78503 104.21062 36123 ft 442 kts 222°
2026-04-27 10:55 26.73754 104.16690 36095 ft 443 kts 221°
2026-04-27 10:55 26.69022 104.12295 36098 ft 443 kts 222°
2026-04-27 10:56 26.64298 104.07892 36078 ft 444 kts 222°
2026-04-27 10:56 26.59567 104.03481 36091 ft 444 kts 222°
2026-04-27 10:57 26.54830 103.99071 36113 ft 444 kts 222°
2026-04-27 10:57 26.50178 103.94747 36078 ft 422 kts 222°
2026-04-27 10:57 26.47966 103.92696 36071 ft 407 kts 221°
2026-04-27 10:58 26.45829 103.90713 36077 ft 393 kts 221°
2026-04-27 10:58 26.43771 103.88804 36074 ft 380 kts 221°
2026-04-27 10:58 26.41777 103.86954 36077 ft 367 kts 222°
2026-04-27 10:58 26.39855 103.85172 36079 ft 354 kts 222°
2026-04-27 10:59 26.37982 103.83435 36083 ft 351 kts 222°
2026-04-27 10:59 26.34156 103.79882 36115 ft 367 kts 222°
2026-04-27 11:00 26.28105 103.74372 36080 ft 376 kts 222°
2026-04-27 11:00 26.24210 103.70657 36100 ft 366 kts 222°
2026-04-27 11:01 26.20282 103.67047 36094 ft 368 kts 221°
2026-04-27 11:01 26.16138 103.63688 36114 ft 373 kts 211°
2026-04-27 11:02 26.11498 103.61074 36093 ft 375 kts 208°
2026-04-27 11:02 26.06826 103.58508 36111 ft 376 kts 209°
2026-04-27 11:03 26.02154 103.55883 36109 ft 378 kts 209°
2026-04-27 11:03 25.97469 103.53219 36082 ft 379 kts 210°
2026-04-27 11:04 25.92790 103.50552 36072 ft 378 kts 210°
2026-04-27 11:04 25.88117 103.47889 36091 ft 378 kts 210°
2026-04-27 11:05 25.83456 103.45234 36095 ft 376 kts 209°
2026-04-27 11:05 25.78801 103.42588 36094 ft 377 kts 210°
2026-04-27 11:06 25.74131 103.39930 36087 ft 379 kts 210°
2026-04-27 11:06 25.69448 103.37268 36076 ft 379 kts 210°
2026-04-27 11:07 25.64757 103.34604 36092 ft 379 kts 210°
2026-04-27 11:07 25.60062 103.31945 36099 ft 380 kts 210°
2026-04-27 11:08 25.55355 103.29277 36101 ft 381 kts 210°
2026-04-27 11:08 25.50652 103.26615 36103 ft 381 kts 210°
2026-04-27 11:09 25.46268 103.23454 36119 ft 375 kts 223°
2026-04-27 11:09 25.42266 103.19682 35988 ft 384 kts 222°
2026-04-27 11:10 25.38096 103.15981 36125 ft 389 kts 220°
2026-04-27 11:10 25.33793 103.12263 36140 ft 396 kts 221°
2026-04-27 11:11 25.29436 103.08464 36162 ft 402 kts 221°
2026-04-27 11:11 25.25032 103.04617 36175 ft 405 kts 221°
2026-04-27 11:12 25.20615 103.00761 36194 ft 404 kts 221°
2026-04-27 11:12 25.16272 102.96972 36181 ft 394 kts 221°
2026-04-27 11:13 25.11978 102.93229 36209 ft 395 kts 221°
2026-04-27 11:13 25.07652 102.89453 36212 ft 400 kts 221°
2026-04-27 11:14 25.03303 102.85642 36192 ft 399 kts 221°
2026-04-27 11:14 24.98992 102.81852 36179 ft 396 kts 221°
2026-04-27 11:15 24.94709 102.78086 36164 ft 393 kts 221°
2026-04-27 11:15 24.90438 102.74361 36155 ft 392 kts 221°
2026-04-27 11:16 24.86155 102.70668 36152 ft 392 kts 221°
2026-04-27 11:16 24.81863 102.66978 36135 ft 393 kts 221°
2026-04-27 11:17 24.77546 102.63271 36136 ft 395 kts 221°
2026-04-27 11:17 24.73205 102.59541 36124 ft 398 kts 221°
2026-04-27 11:18 24.68856 102.55805 36059 ft 393 kts 221°
2026-04-27 11:18 24.66718 102.53976 35748 ft 388 kts 221°
2026-04-27 11:18 24.64594 102.52155 35325 ft 388 kts 221°
2026-04-27 11:19 24.62473 102.50329 34908 ft 388 kts 221°
2026-04-27 11:19 24.60362 102.48502 34579 ft 385 kts 221°
2026-04-27 11:19 24.58275 102.46689 34305 ft 381 kts 221°
2026-04-27 11:19 24.56216 102.44894 34035 ft 377 kts 221°
2026-04-27 11:20 24.54177 102.43110 33692 ft 374 kts 221°
2026-04-27 11:20 24.52155 102.41336 33333 ft 372 kts 221°
2026-04-27 11:20 24.50146 102.39575 32974 ft 370 kts 221°
2026-04-27 11:20 24.48133 102.37834 32556 ft 368 kts 220°
2026-04-27 11:21 24.46130 102.36105 32236 ft 365 kts 221°
2026-04-27 11:21 24.44152 102.34387 31975 ft 361 kts 221°
2026-04-27 11:21 24.42199 102.32690 31701 ft 357 kts 221°
2026-04-27 11:21 24.40263 102.31000 31403 ft 355 kts 221°
2026-04-27 11:22 24.38343 102.29323 31091 ft 352 kts 221°
2026-04-27 11:22 24.36441 102.27659 30811 ft 350 kts 221°
2026-04-27 11:22 24.34552 102.26005 30540 ft 347 kts 221°
2026-04-27 11:22 24.32677 102.24364 30258 ft 344 kts 221°
2026-04-27 11:23 24.30816 102.22731 29962 ft 342 kts 221°
2026-04-27 11:23 24.28972 102.21112 29632 ft 339 kts 221°
2026-04-27 11:23 24.27145 102.19509 29306 ft 335 kts 221°
2026-04-27 11:23 24.25338 102.17926 28973 ft 332 kts 221°
2026-04-27 11:24 24.23543 102.16358 28657 ft 329 kts 221°
2026-04-27 11:24 24.21765 102.14809 28344 ft 326 kts 221°
2026-04-27 11:24 24.20000 102.13282 28058 ft 322 kts 221°
2026-04-27 11:24 24.18250 102.11780 27764 ft 319 kts 221°
2026-04-27 11:25 24.16510 102.10295 27447 ft 316 kts 221°
2026-04-27 11:25 24.14783 102.08824 27121 ft 314 kts 221°
2026-04-27 11:25 24.13066 102.07366 26812 ft 312 kts 221°
2026-04-27 11:25 24.11357 102.05922 26511 ft 310 kts 221°
2026-04-27 11:26 24.09658 102.04489 26198 ft 308 kts 221°
2026-04-27 11:26 24.07970 102.03068 25857 ft 307 kts 221°
2026-04-27 11:26 24.06289 102.01650 25569 ft 305 kts 221°
2026-04-27 11:26 24.04618 102.00244 25269 ft 303 kts 221°
2026-04-27 11:27 24.02954 101.98847 24976 ft 301 kts 221°
2026-04-27 11:27 24.01299 101.97460 24700 ft 299 kts 221°
2026-04-27 11:27 23.99641 101.96109 24437 ft 297 kts 221°
2026-04-27 11:27 23.97995 101.94757 24172 ft 296 kts 221°
2026-04-27 11:28 23.96394 101.93377 23921 ft 292 kts 226°
2026-04-27 11:28 23.94996 101.91776 23731 ft 295 kts 235°
2026-04-27 11:28 23.94181 101.90541 23609 ft 308 kts 239°
2026-04-27 11:28 23.92863 101.87625 23332 ft 335 kts 252°
2026-04-27 11:29 23.92240 101.85107 23051 ft 354 kts 261°
2026-04-27 11:29 23.92022 101.83299 22906 ft 367 kts 266°
2026-04-27 11:29 23.92087 101.79578 22558 ft 370 kts 277°
2026-04-27 11:29 23.92581 101.76822 22307 ft 372 kts 285°
2026-04-27 11:30 23.93118 101.75031 22131 ft 374 kts 290°
2026-04-27 11:30 23.94674 101.71638 21813 ft 377 kts 301°
2026-04-27 11:30 23.96217 101.69351 21557 ft 379 kts 308°
2026-04-27 11:30 23.98083 101.67287 21328 ft 381 kts 316°
2026-04-27 11:31 24.00198 101.65544 21086 ft 384 kts 323°
2026-04-27 11:31 24.02568 101.64192 20825 ft 390 kts 338°
2026-04-27 11:31 24.05271 101.63796 20586 ft 400 kts 358°
2026-04-27 11:31 24.08017 101.64321 20367 ft 405 kts 12°
2026-04-27 11:32 24.10609 101.65558 20140 ft 412 kts 29°
2026-04-27 11:32 24.12899 101.67471 19925 ft 416 kts 36°
2026-04-27 11:32 24.15089 101.69519 19698 ft 416 kts 38°
2026-04-27 11:32 24.17261 101.71614 19464 ft 416 kts 38°
2026-04-27 11:33 24.19426 101.73712 19250 ft 417 kts 38°
2026-04-27 11:33 24.21595 101.75804 19009 ft 417 kts 38°
2026-04-27 11:33 24.23776 101.77896 18793 ft 417 kts 38°
2026-04-27 11:33 24.25961 101.79970 18575 ft 417 kts 37°
2026-04-27 11:34 24.28154 101.82045 18367 ft 418 kts 37°
2026-04-27 11:34 24.30355 101.84123 18145 ft 418 kts 37°
2026-04-27 11:34 24.32559 101.86200 17895 ft 420 kts 37°
2026-04-27 11:34 24.34774 101.88293 17657 ft 422 kts 38°
2026-04-27 11:35 24.36974 101.90411 17400 ft 423 kts 38°
2026-04-27 11:35 24.39195 101.92525 17155 ft 423 kts 37°
2026-04-27 11:35 24.41418 101.94624 16904 ft 423 kts 37°
2026-04-27 11:35 24.43644 101.96722 16647 ft 423 kts 37°
2026-04-27 11:36 24.45882 101.98806 16420 ft 422 kts 38°
2026-04-27 11:36 24.48209 102.00750 16143 ft 420 kts 34°
2026-04-27 11:36 24.50445 102.02836 15895 ft 425 kts 40°
2026-04-27 11:36 24.52613 102.05039 15658 ft 425 kts 39°
2026-04-27 11:37 24.54821 102.07183 15456 ft 425 kts 39°
2026-04-27 11:37 24.57032 102.09327 15220 ft 426 kts 39°
2026-04-27 11:37 24.59246 102.11452 14968 ft 419 kts 38°
2026-04-27 11:37 24.61409 102.13520 14734 ft 407 kts 39°
2026-04-27 11:38 24.63489 102.15575 14461 ft 400 kts 40°
2026-04-27 11:38 24.65524 102.17589 14245 ft 390 kts 38°
2026-04-27 11:38 24.67560 102.19504 14035 ft 382 kts 38°
2026-04-27 11:38 24.69566 102.21360 13805 ft 373 kts 36°
2026-04-27 11:39 24.71546 102.23158 13538 ft 365 kts 37°
2026-04-27 11:39 24.73315 102.25077 13221 ft 351 kts 46°
2026-04-27 11:39 24.75050 102.26867 12995 ft 336 kts 35°
2026-04-27 11:39 24.76864 102.28419 12728 ft 327 kts 36°
2026-04-27 11:40 24.78597 102.29977 12446 ft 318 kts 37°
2026-04-27 11:40 24.80272 102.31538 12157 ft 313 kts 38°
2026-04-27 11:40 24.81862 102.33121 11842 ft 305 kts 49°
2026-04-27 11:40 24.83216 102.34783 11851 ft 282 kts 36°
2026-04-27 11:41 24.84741 102.36058 11866 ft 276 kts 33°
2026-04-27 11:41 24.86263 102.37347 11877 ft 276 kts 36°
2026-04-27 11:41 24.87740 102.38691 11863 ft 275 kts 37°
2026-04-27 11:41 24.89195 102.40050 11848 ft 275 kts 37°
2026-04-27 11:42 24.90648 102.41422 11880 ft 280 kts 38°
2026-04-27 11:42 24.92193 102.42880 11899 ft 306 kts 38°
2026-04-27 11:42 24.93875 102.44473 11900 ft 332 kts 38°
2026-04-27 11:42 24.95684 102.46196 11882 ft 357 kts 39°
2026-04-27 11:43 24.97608 102.48055 11877 ft 379 kts 40°
2026-04-27 11:43 24.99608 102.50056 11868 ft 399 kts 42°
2026-04-27 11:43 25.01652 102.52194 11874 ft 413 kts 40°
2026-04-27 11:43 25.03860 102.54276 11883 ft 421 kts 38°
2026-04-27 11:44 25.06111 102.56349 11876 ft 423 kts 38°
2026-04-27 11:44 25.08355 102.58428 11861 ft 422 kts 38°
2026-04-27 11:44 25.10534 102.60593 11685 ft 421 kts 44°
2026-04-27 11:44 25.12661 102.62772 11834 ft 418 kts 38°
2026-04-27 11:45 25.14954 102.64765 11899 ft 423 kts 36°
2026-04-27 11:45 25.16494 102.66112 11896 ft 426 kts 38°
2026-04-27 11:45 25.19504 102.68947 11884 ft 423 kts 40°
2026-04-27 11:45 25.21656 102.71057 11874 ft 407 kts 40°
2026-04-27 11:46 25.23727 102.73082 11828 ft 389 kts 41°
2026-04-27 11:46 25.25670 102.75039 11901 ft 369 kts 40°
2026-04-27 11:46 25.27547 102.76875 11876 ft 354 kts 39°
2026-04-27 11:46 25.29361 102.78617 11894 ft 339 kts 39°
2026-04-27 11:47 25.31104 102.80285 11905 ft 324 kts 39°
2026-04-27 11:47 25.32759 102.81873 11865 ft 312 kts 39°
2026-04-27 11:47 25.34366 102.83419 11851 ft 298 kts 39°
2026-04-27 11:47 25.35889 102.84886 11872 ft 285 kts 39°
2026-04-27 11:48 25.37348 102.86293 11873 ft 275 kts 39°
2026-04-27 11:48 25.38787 102.87681 11884 ft 276 kts 39°
2026-04-27 11:48 25.40259 102.89040 11882 ft 277 kts 39°
2026-04-27 11:48 25.41713 102.90435 11894 ft 278 kts 40°
2026-04-27 11:49 25.43161 102.91854 11887 ft 279 kts 39°
2026-04-27 11:49 25.44612 102.93270 11888 ft 279 kts 39°
2026-04-27 11:49 25.46066 102.94689 11893 ft 279 kts 39°
2026-04-27 11:49 25.47520 102.96107 11840 ft 279 kts 40°
2026-04-27 11:50 25.48766 102.97715 11898 ft 272 kts 46°
2026-04-27 11:50 25.50187 102.99078 11886 ft 271 kts 33°
2026-04-27 11:50 25.51724 103.00286 11886 ft 273 kts 32°
2026-04-27 11:50 25.53239 103.01590 11906 ft 279 kts 38°
2026-04-27 11:51 25.54708 103.03005 11884 ft 280 kts 39°
2026-04-27 11:51 25.56145 103.04417 11874 ft 275 kts 39°
2026-04-27 11:51 25.58977 103.07207 11870 ft 275 kts 39°
2026-04-27 11:52 25.60418 103.08611 11887 ft 278 kts 39°
2026-04-27 11:52 25.61868 103.10024 11872 ft 278 kts 39°
2026-04-27 11:52 25.63427 103.11261 11823 ft 276 kts 36°
2026-04-27 11:52 25.64816 103.12681 11880 ft 273 kts 42°
2026-04-27 11:53 25.66199 103.14138 11881 ft 276 kts 44°
2026-04-27 11:53 25.67148 103.15968 11851 ft 278 kts 81°
2026-04-27 11:53 25.67016 103.18052 11850 ft 273 kts 116°
2026-04-27 11:53 25.65985 103.19776 11863 ft 269 kts 141°
2026-04-27 11:54 25.64434 103.20879 11867 ft 265 kts 165°
2026-04-27 11:54 25.62649 103.21195 11869 ft 260 kts 187°
2026-04-27 11:54 25.60908 103.20760 11868 ft 256 kts 201°
2026-04-27 11:54 25.59248 103.20106 11872 ft 252 kts 203°
2026-04-27 11:55 25.57620 103.19439 11870 ft 248 kts 203°
2026-04-27 11:55 25.56004 103.18774 11874 ft 248 kts 203°
2026-04-27 11:55 25.54387 103.18112 11871 ft 249 kts 203°
2026-04-27 11:55 25.52769 103.17454 11879 ft 247 kts 203°
2026-04-27 11:56 25.51170 103.16807 11881 ft 243 kts 203°
2026-04-27 11:56 25.49591 103.16171 11876 ft 242 kts 203°
2026-04-27 11:56 25.48007 103.15534 11889 ft 243 kts 203°
2026-04-27 11:56 25.46422 103.14898 11888 ft 244 kts 202°
2026-04-27 11:57 25.44832 103.14260 11891 ft 244 kts 202°
2026-04-27 11:57 25.43234 103.13621 11892 ft 245 kts 203°
2026-04-27 11:57 25.41630 103.12979 11893 ft 246 kts 203°
2026-04-27 11:57 25.40018 103.12333 11756 ft 251 kts 203°
2026-04-27 11:58 25.38366 103.11672 11549 ft 251 kts 203°
2026-04-27 11:58 25.36724 103.11016 11259 ft 251 kts 203°
2026-04-27 11:58 25.35088 103.10363 11011 ft 250 kts 203°
2026-04-27 11:58 25.33457 103.09712 10746 ft 249 kts 203°
2026-04-27 11:59 25.31855 103.09073 10713 ft 240 kts 203°
2026-04-27 11:59 25.30300 103.08454 10774 ft 243 kts 203°
2026-04-27 11:59 25.28629 103.07785 10824 ft 270 kts 203°
2026-04-27 11:59 25.26779 103.07033 10832 ft 298 kts 203°
2026-04-27 12:00 25.24780 103.06208 10824 ft 313 kts 203°
2026-04-27 12:00 25.22701 103.05511 10795 ft 316 kts 188°
2026-04-27 12:00 25.20530 103.05878 10833 ft 328 kts 159°
2026-04-27 12:00 25.18688 103.07420 10829 ft 344 kts 130°
2026-04-27 12:01 25.17638 103.09811 10798 ft 352 kts 102°
2026-04-27 12:01 25.17675 103.12465 10817 ft 349 kts 74°
2026-04-27 12:01 25.18791 103.14803 10787 ft 345 kts 46°
2026-04-27 12:01 25.20501 103.16617 10806 ft 341 kts 43°
2026-04-27 12:02 25.22162 103.18454 10756 ft 337 kts 39°
2026-04-27 12:02 25.24095 103.19782 10765 ft 317 kts 16°
2026-04-27 12:02 25.26168 103.20348 10778 ft 300 kts
2026-04-27 12:02 25.28164 103.20809 10732 ft 288 kts
2026-04-27 12:03 25.30095 103.21250 10764 ft 284 kts
2026-04-27 12:03 25.32027 103.21690 10752 ft 280 kts
2026-04-27 12:03 25.33919 103.21703 10752 ft 268 kts 340°
2026-04-27 12:03 25.35515 103.20779 10776 ft 255 kts 314°
2026-04-27 12:04 25.36550 103.19259 10771 ft 244 kts 291°
2026-04-27 12:04 25.36761 103.17497 10770 ft 229 kts 254°
2026-04-27 12:04 25.36158 103.15913 10771 ft 223 kts 241°
2026-04-27 12:04 25.35284 103.14482 10795 ft 230 kts 232°
2026-04-27 12:05 25.34186 103.13157 10800 ft 238 kts 225°
2026-04-27 12:05 25.32968 103.11926 10785 ft 237 kts 225°
2026-04-27 12:05 25.31792 103.10686 10777 ft 232 kts 224°
2026-04-27 12:05 25.30583 103.09523 10788 ft 229 kts 222°
2026-04-27 12:06 25.29357 103.08426 10774 ft 229 kts 221°
2026-04-27 12:06 25.28090 103.07315 10583 ft 235 kts 221°
2026-04-27 12:06 25.26816 103.06203 10323 ft 232 kts 220°
2026-04-27 12:06 25.25563 103.05110 10051 ft 227 kts 220°
2026-04-27 12:07 25.24341 103.04042 9760 ft 222 kts 221°
2026-04-27 12:07 25.23147 103.02998 9452 ft 216 kts 220°
2026-04-27 12:07 25.22002 103.01997 9171 ft 204 kts 220°
2026-04-27 12:07 25.20930 103.01060 8930 ft 188 kts 220°
2026-04-27 12:08 25.19952 103.00205 8677 ft 173 kts 220°
2026-04-27 12:08 25.19033 102.99401 8481 ft 170 kts 221°
2026-04-27 12:08 25.18103 102.98584 8251 ft 173 kts 221°
2026-04-27 12:08 25.17160 102.97760 8036 ft 172 kts 220°
2026-04-27 12:09 25.16261 102.96973 7788 ft 160 kts 220°
2026-04-27 12:09 25.15398 102.96218 7533 ft 158 kts 219°
2026-04-27 12:09 25.14532 102.95460 7358 ft 164 kts 218°
2026-04-27 12:09 25.13644 102.94684 7113 ft 159 kts 218°
2026-04-27 12:10 25.12785 102.93932 6909 ft 155 kts 218°
2026-04-27 12:10 25.12013 102.93254 6898 ft 128 kts 219°
2026-04-27 12:10 25.11414 102.92729 6908 ft 93 kts 218°
2026-04-27 12:10 25.10996 102.92366 6903 ft 61 kts 218°
2026-04-27 12:11 25.10753 102.92153 6907 ft 29 kts 218°
2026-04-27 12:11 25.10615 102.92034 6913 ft 24 kts 218°
2026-04-27 12:11 25.10489 102.91924 6917 ft 18 kts 218°
2026-04-27 12:11 25.10411 102.91867 6922 ft 8 kts 199°
2026-04-27 12:12 25.10360 102.91880 6909 ft 8 kts 140°
2026-04-27 12:12 25.10332 102.91917 6921 ft 5 kts 129°
2026-04-27 12:12 25.10312 102.91945 6908 ft 5 kts 129°
2026-04-27 12:12 25.10292 102.91971 6915 ft 4 kts 130°
2026-04-27 12:13 25.10280 102.91988 6919 ft 0 kts 130°
2026-04-27 12:14 25.10274 102.91995 6914 ft 5 kts 130°
2026-04-27 12:15 25.10252 102.92026 6909 ft 5 kts 124°
2026-04-27 12:15 25.10243 102.92063 6911 ft 5 kts 93°
2026-04-27 12:15 25.10243 102.92102 6907 ft 5 kts 99°
2026-04-27 12:15 25.10228 102.92136 6914 ft 5 kts 125°
2026-04-27 12:16 25.10222 102.92145 6919 ft 0 kts 129°
2026-04-27 12:16 25.10215 102.92153 6911 ft 2 kts 128°
2026-04-27 12:16 25.10212 102.92166 6910 ft 2 kts 95°
2026-04-27 12:16 25.10225 102.92190 6917 ft 5 kts 49°
2026-04-27 12:17 25.10245 102.92209 6906 ft 2 kts 40°
2026-04-27 12:17 25.10256 102.92218 6906 ft 2 kts 39°
2026-04-27 12:17 25.10258 102.92220 6906 ft 0 kts 39°
2026-04-27 12:18 25.10259 102.92220 6906 ft 0 kts 39°